Location: Pasarilla del Rebollar
(40.6790°N, 5.0062°W)
Time: 11:29:44
(UTC+00:00)

ADEOS II - Pass Details

Date: 22 April 2026
Orbit: 793 x 795 km, 98.8° (Epoch: 15 May)

Event Time Altitude Azimuth Distance (km) Brightness Sun altitude
Rises 03:47:07 0° 9° (N) 3,304 6.0 -18.5°
Reaches altitude 10° 03:49:29 10° 6° (N) 2,370 5.1 -18.1°
Maximum altitude 03:54:36 58° 288° (WNW) 924 2.2 -17.3°
Enters shadow 03:57:20 27° 220° (SW) 1,485 2.9 -16.9°
